• In Czech Republic
  • List of Countries
  • For 7 days
  • Water Temperature
  • Satellite Maps
  • Weather Map
  • Weather Widgets
  • user-avatar
    Login

    Hourly Weather Fier

    Today, 20 November, Monday

    Time Temperature Precipitation Wind Pressure Humidity
    00:00 +10°C° 0.7 mm 5 mps 757 mmHg 90%
    01:00 +9°C° 0 mm 5 mps 757 mmHg 92%
    02:00 +9°C° 1.2 mm 5 mps 757 mmHg 90%
    03:00 +9°C° 1.2 mm 6 mps 757 mmHg 88%
    04:00 +9°C° 1.2 mm 7 mps 757 mmHg 87%
    05:00 +9°C° 0.5 mm 6 mps 758 mmHg 87%
    06:00 +8°C° 0.5 mm 6 mps 758 mmHg 87%
    07:00 +8°C° 0 mm 5 mps 758 mmHg 87%
    08:00 +9°C° 0.1 mm 5 mps 759 mmHg 78%
    09:00 +10°C° 0.1 mm 6 mps 759 mmHg 69%
    10:00 +11°C° 0.1 mm 6 mps 760 mmHg 60%
    11:00 +11°C° 0 mm 6 mps 760 mmHg 56%
    12:00 +13°C° 0 mm 6 mps 761 mmHg 52%
    13:00 +12°C° 0 mm 7 mps 760 mmHg 47%
    14:00 +11°C° 0 mm 6 mps 761 mmHg 51%
    15:00 +10°C° 0 mm 6 mps 761 mmHg 55%
    16:00 +9°C° 0 mm 6 mps 762 mmHg 58%
    17:00 +8°C° 0 mm 5 mps 762 mmHg 60%
    18:00 +7°C° 0 mm 5 mps 763 mmHg 62%
    19:00 +6°C° 0 mm 4 mps 763 mmHg 64%
    20:00 +6°C° 0 mm 4 mps 764 mmHg 64%
    21:00 +5°C° 0 mm 3 mps 764 mmHg 64%
    22:00 +5°C° 0 mm 3 mps 764 mmHg 63%
    23:00 +5°C° 0 mm 3 mps 765 mmHg 62%

    Tomorrow, 21 November, Tuesday

    Time Temperature Precipitation Wind Pressure Humidity
    00:00 +6°C° 0 mm 2 mps 765 mmHg 61%
    01:00 +6°C° 0 mm 2 mps 765 mmHg 60%
    02:00 +6°C° 0 mm 2 mps 765 mmHg 58%
    03:00 +6°C° 0 mm 2 mps 765 mmHg 56%
    04:00 +4°C° 0 mm 3 mps 765 mmHg 54%
    05:00 +6°C° 0 mm 2 mps 765 mmHg 53%
    06:00 +6°C° 0 mm 2 mps 765 mmHg 52%
    07:00 +6°C° 0 mm 2 mps 765 mmHg 50%
    08:00 +8°C° 0 mm 2 mps 765 mmHg 45%
    09:00 +10°C° 0 mm 2 mps 765 mmHg 39%
    10:00 +13°C° 0 mm 2 mps 765 mmHg 34%
    11:00 +13°C° 0 mm 2 mps 765 mmHg 35%
    12:00 +14°C° 0 mm 2 mps 765 mmHg 35%
    13:00 +14°C° 0 mm 1 mps 765 mmHg 36%
    14:00 +13°C° 0 mm 1 mps 765 mmHg 41%
    15:00 +12°C° 0 mm 1 mps 765 mmHg 47%
    16:00 +11°C° 0 mm 1 mps 765 mmHg 52%
    17:00 +10°C° 0 mm 1 mps 765 mmHg 53%
    18:00 +10°C° 0 mm 1 mps 765 mmHg 53%
    19:00 +8°C° 0 mm 2 mps 765 mmHg 53%
    20:00 +8°C° 0 mm 2 mps 765 mmHg 53%
    21:00 +8°C° 0 mm 2 mps 765 mmHg 53%
    22:00 +8°C° 0 mm 2 mps 765 mmHg 53%
    23:00 +8°C° 0 mm 2 mps 765 mmHg 52%

    Day after tomorrow, 22 November, Wednesday

    Time Temperature Precipitation Wind Pressure Humidity
    00:00 +8°C° 0 mm 2 mps 765 mmHg 52%
    01:00 +8°C° 0 mm 2 mps 765 mmHg 52%
    02:00 +8°C° 0 mm 2 mps 765 mmHg 53%
    03:00 +8°C° 0 mm 2 mps 765 mmHg 53%
    04:00 +8°C° 0 mm 2 mps 765 mmHg 54%
    05:00 +8°C° 0 mm 2 mps 765 mmHg 55%
    06:00 +8°C° 0 mm 2 mps 765 mmHg 57%
    07:00 +8°C° 0 mm 2 mps 765 mmHg 59%
    08:00 +10°C° 0 mm 2 mps 765 mmHg 56%
    09:00 +13°C° 0 mm 1 mps 765 mmHg 53%
    10:00 +15°C° 0 mm 1 mps 765 mmHg 50%
    11:00 +16°C° 0 mm 1 mps 765 mmHg 49%
    12:00 +16°C° 0 mm 1 mps 765 mmHg 49%
    13:00 +18°C° 0 mm 1 mps 764 mmHg 49%
    14:00 +16°C° 0 mm 1 mps 764 mmHg 55%
    15:00 +15°C° 0 mm 1 mps 764 mmHg 61%
    16:00 +13°C° 0 mm 1 mps 764 mmHg 68%
    17:00 +13°C° 0 mm 1 mps 764 mmHg 69%
    18:00 +12°C° 0 mm 1 mps 765 mmHg 71%
    19:00 +11°C° 0 mm 1 mps 765 mmHg 73%
    20:00 +11°C° 0 mm 1 mps 765 mmHg 72%
    21:00 +11°C° 0 mm 1 mps 765 mmHg 71%
    22:00 +11°C° 0 mm 1 mps 765 mmHg 69%
    23:00 +11°C° 0 mm 1 mps 765 mmHg 68%

    23 November, Thursday

    Time Temperature Precipitation Wind Pressure Humidity
    00:00 +11°C° 0 mm 1 mps 765 mmHg 68%
    01:00 +11°C° 0 mm 1 mps 765 mmHg 67%
    02:00 +11°C° 0 mm 1 mps 765 mmHg 66%
    03:00 +10°C° 0 mm 1 mps 765 mmHg 66%
    04:00 +10°C° 0 mm 1 mps 765 mmHg 66%
    05:00 +10°C° 0 mm 1 mps 765 mmHg 65%
    06:00 +10°C° 0 mm 1 mps 765 mmHg 64%
    07:00 +9°C° 0 mm 2 mps 766 mmHg 64%
    08:00 +13°C° 0 mm 1 mps 766 mmHg 58%
    09:00 +15°C° 0 mm 1 mps 766 mmHg 51%
    10:00 +18°C° 0 mm 1 mps 766 mmHg 45%
    11:00 +18°C° 0 mm 1 mps 766 mmHg 44%
    12:00 +19°C° 0 mm 1 mps 765 mmHg 43%
    13:00 +20°C° 0 mm 1 mps 765 mmHg 42%
    14:00 +17°C° 0 mm 2 mps 765 mmHg 49%
    15:00 +16°C° 0 mm 2 mps 765 mmHg 55%
    16:00 +15°C° 0 mm 2 mps 765 mmHg 62%
    17:00 +14°C° 0 mm 2 mps 765 mmHg 64%
    18:00 +13°C° 0 mm 2 mps 766 mmHg 66%
    19:00 +12°C° 0 mm 2 mps 766 mmHg 68%
    20:00 +12°C° 0 mm 2 mps 766 mmHg 67%
    21:00 +12°C° 0 mm 1 mps 767 mmHg 65%
    22:00 +12°C° 0 mm 1 mps 767 mmHg 64%
    23:00 +12°C° 0 mm 1 mps 767 mmHg 63%

    24 November, Friday

    Time Temperature Precipitation Wind Pressure Humidity
    00:00 +11°C° 0 mm 1 mps 767 mmHg 63%
    01:00 +11°C° 0 mm 1 mps 766 mmHg 62%
    02:00 +11°C° 0 mm 1 mps 766 mmHg 62%
    03:00 +11°C° 0 mm 1 mps 766 mmHg 62%
    04:00 +10°C° 0 mm 2 mps 766 mmHg 62%
    05:00 +10°C° 0 mm 2 mps 766 mmHg 63%
    06:00 +10°C° 0 mm 2 mps 766 mmHg 64%
    07:00 +11°C° 0 mm 1 mps 767 mmHg 65%
    08:00 +13°C° 0 mm 1 mps 767 mmHg 61%
    09:00 +15°C° 0 mm 1 mps 767 mmHg 57%
    10:00 +18°C° 0 mm 1 mps 767 mmHg 53%
    11:00 +17°C° 0 mm 2 mps 766 mmHg 53%
    12:00 +18°C° 0 mm 2 mps 766 mmHg 54%
    13:00 +18°C° 0 mm 3 mps 766 mmHg 54%
    14:00 +17°C° 0 mm 3 mps 766 mmHg 62%
    15:00 +16°C° 0 mm 3 mps 766 mmHg 69%
    16:00 +14°C° 0 mm 3 mps 766 mmHg 77%
    17:00 +13°C° 0 mm 3 mps 766 mmHg 80%
    18:00 +12°C° 0 mm 3 mps 766 mmHg 82%
    19:00 +11°C° 0 mm 3 mps 767 mmHg 85%
    20:00 +12°C° 0 mm 2 mps 767 mmHg 82%
    21:00 +12°C° 0 mm 2 mps 767 mmHg 80%
    22:00 +12°C° 0 mm 2 mps 767 mmHg 78%
    23:00 +12°C° 0 mm 2 mps 767 mmHg 75%

    25 November, Saturday

    Time Temperature Precipitation Wind Pressure Humidity
    00:00 +12°C° 0 mm 2 mps 767 mmHg 73%
    01:00 +10°C° 0 mm 2 mps 767 mmHg 70%
    02:00 +10°C° 0 mm 2 mps 767 mmHg 69%
    03:00 +10°C° 0 mm 2 mps 767 mmHg 68%
    04:00 +10°C° 0 mm 2 mps 767 mmHg 67%
    05:00 +10°C° 0 mm 2 mps 767 mmHg 66%
    06:00 +10°C° 0 mm 2 mps 768 mmHg 66%
    07:00 +10°C° 0 mm 2 mps 768 mmHg 66%
    08:00 +13°C° 0 mm 2 mps 768 mmHg 60%
    09:00 +15°C° 0 mm 1 mps 768 mmHg 54%
    10:00 +18°C° 0 mm 1 mps 768 mmHg 49%
    11:00 +19°C° 0 mm 1 mps 768 mmHg 46%
    12:00 +20°C° 0 mm 1 mps 767 mmHg 44%
    13:00 +20°C° 0 mm 1 mps 767 mmHg 42%
    14:00 +19°C° 0 mm 1 mps 767 mmHg 48%
    15:00 +18°C° 0 mm 1 mps 767 mmHg 55%
    16:00 +15°C° 0 mm 1 mps 767 mmHg 61%
    17:00 +15°C° 0 mm 1 mps 767 mmHg 64%
    18:00 +14°C° 0 mm 1 mps 768 mmHg 66%
    19:00 +12°C° 0 mm 0 mps 768 mmHg 68%
    20:00 +13°C° 0 mm 1 mps 768 mmHg 68%
    21:00 +13°C° 0 mm 1 mps 768 mmHg 69%
    22:00 +12°C° 0 mm 1 mps 768 mmHg 69%
    23:00 +12°C° 0 mm 1 mps 768 mmHg 69%
    Show more